Time,TemperatureF,DewpointF,PressureIn,WindDirection,WindDirectionDegrees,WindSpeedMPH,WindSpeedGustMPH,Humidity,HourlyPrecipIn,Conditions,Clouds,dailyrainin,SoftwareType,DateUTC
2013-01-24 00:00:00,13.6,1.6,30.10,WNW,292,0.0,0.0,58,0.00,FEW,,0.00,WeatherDisplay:10.37,2013-01-24 05:00:00,
2013-01-24 00:01:00,13.6,1.6,30.10,WNW,292,0.0,0.0,58,0.00,FEW,,0.00,WeatherDisplay:10.37,2013-01-24 05:01:00,
2013-01-24 00:05:00,13.6,1.6,30.10,NW,315,0.0,0.0,58,0.00,FEW,,0.00,WeatherDisplay:10.37,2013-01-24 05:05:00,
2013-01-24 00:06:00,13.6,1.6,30.10,NW,315,0.0,0.0,58,0.00,FEW,,0.00,WeatherDisplay:10.37,2013-01-24 05:06:00,
2013-01-24 00:11:00,13.8,1.7,30.09,NW,315,0.0,0.0,58,0.00,FEW,,0.00,WeatherDisplay:10.37,2013-01-24 05:11:00,
2013-01-24 00:16:00,14.0,2.3,30.09,South,180,2.3,2.3,59,0.00,OVC,,0.00,WeatherDisplay:10.37,2013-01-24 05:16:00,
2013-01-24 00:21:00,14.0,2.3,30.09,SW,225,0.0,0.3,59,0.00,OVC,,0.00,WeatherDisplay:10.37,2013-01-24 05:21:00,
2013-01-24 00:26:00,14.0,1.9,30.09,South,180,1.1,1.1,58,0.00,OVC,,0.00,WeatherDisplay:10.37,2013-01-24 05:26:00,
2013-01-24 00:31:00,13.8,1.7,30.08,WSW,248,0.0,0.1,58,0.00,OVC,,0.00,WeatherDisplay:10.37,2013-01-24 05:31:00,
2013-01-24 00:36:00,14.0,2.3,30.08,WSW,248,0.0,0.0,59,0.00,OVC,,0.00,WeatherDisplay:10.37,2013-01-24 05:36:00,
2013-01-24 00:41:00,13.6,1.9,30.08,SW,225,0.0,0.0,59,0.00,OVC,,0.00,WeatherDisplay:10.37,2013-01-24 05:41:00,
2013-01-24 00:46:00,13.5,1.8,30.08,SW,225,0.0,0.0,59,0.00,OVC,,0.00,WeatherDisplay:10.37,2013-01-24 05:46:00,
2013-01-24 00:51:00,13.3,1.6,30.06,NW,315,0.0,0.0,59,0.00,OVC,,0.00,WeatherDisplay:10.37,2013-01-24 05:51:00,
2013-01-24 00:56:00,13.1,1.4,30.06,SW,225,0.0,0.0,59,0.00,OVC,,0.00,WeatherDisplay:10.37,2013-01-24 05:56:00,
2013-01-24 01:01:00,12.9,1.3,30.06,NW,315,0.0,0.0,59,0.00,OVC,,0.00,WeatherDisplay:10.37,2013-01-24 06:01:00,
2013-01-24 01:06:00,12.9,1.6,30.06,NW,315,0.0,0.0,60,0.00,OVC,,0.00,WeatherDisplay:10.37,2013-01-24 06:06:00,
2013-01-24 01:11:00,12.6,1.3,30.06,NW,315,0.0,0.0,60,0.00,OVC,,0.00,WeatherDisplay:10.37,2013-01-24 06:11:00,
2013-01-24 01:16:00,12.4,1.5,30.06,NW,315,0.0,0.0,61,0.00,OVC,,0.00,WeatherDisplay:10.37,2013-01-24 06:16:00,
2013-01-24 01:21:00,12.2,1.3,30.06,NW,315,0.0,0.0,61,0.00,OVC,,0.00,WeatherDisplay:10.37,2013-01-24 06:21:00,
2013-01-24 01:26:00,12.2,1.3,30.06,NW,315,0.0,0.0,61,0.00,OVC,,0.00,WeatherDisplay:10.37,2013-01-24 06:26:00,
2013-01-24 01:31:00,12.2,1.7,30.05,WNW,292,0.0,0.0,62,0.00,OVC,,0.00,WeatherDisplay:10.37,2013-01-24 06:31:00,
2013-01-24 01:36:00,12.2,1.7,30.05,SW,225,0.0,0.0,62,0.00,OVC,,0.00,WeatherDisplay:10.37,2013-01-24 06:36:00,
2013-01-24 01:41:00,12.2,2.0,30.05,SW,225,0.0,0.0,63,0.00,OVC,,0.00,WeatherDisplay:10.37,2013-01-24 06:41:00,
2013-01-24 01:46:00,12.2,2.0,30.05,West,270,0.0,0.0,63,0.00,OVC,,0.00,WeatherDisplay:10.37,2013-01-24 06:46:00,
2013-01-24 01:52:00,12.2,2.0,30.04,South,180,0.0,0.0,63,0.00,OVC,,0.00,WeatherDisplay:10.37,2013-01-24 06:52:00,
2013-01-24 01:57:00,11.8,1.7,30.04,SSE,158,0.0,0.0,63,0.00,OVC,,0.00,WeatherDisplay:10.37,2013-01-24 06:57:00,
2013-01-24 02:02:00,11.7,1.8,30.04,South,180,0.0,0.0,64,0.00,OVC,,0.00,WeatherDisplay:10.37,2013-01-24 07:02:00,
2013-01-24 02:07:00,11.7,1.8,30.04,West,270,0.0,0.0,64,0.00,OVC,,0.00,WeatherDisplay:10.37,2013-01-24 07:07:00,
2013-01-24 02:12:00,11.7,2.2,30.04,West,270,0.0,0.0,65,0.00,OVC,,0.00,WeatherDisplay:10.37,2013-01-24 07:12:00,
2013-01-24 02:17:00,11.5,1.6,30.04,WNW,292,0.0,0.0,64,0.00,OVC,,0.00,WeatherDisplay:10.37,2013-01-24 07:17:00,
2013-01-24 02:22:00,11.5,2.0,30.04,West,270,0.0,0.0,65,0.00,OVC,,0.00,WeatherDisplay:10.37,2013-01-24 07:22:00,
2013-01-24 02:27:00,11.5,2.0,30.04,West,270,0.0,0.0,65,0.00,OVC,,0.00,WeatherDisplay:10.37,2013-01-24 07:27:00,
2013-01-24 02:32:00,11.5,2.3,30.04,West,270,0.0,0.0,66,0.00,OVC,,0.00,WeatherDisplay:10.37,2013-01-24 07:32:00,
2013-01-24 02:37:00,11.3,2.1,30.04,NW,315,0.0,0.0,66,0.00,OVC,,0.00,WeatherDisplay:10.37,2013-01-24 07:37:00,
2013-01-24 02:42:00,11.5,2.3,30.04,NW,315,0.0,0.0,66,0.00,OVC,,0.00,WeatherDisplay:10.37,2013-01-24 07:42:00,
2013-01-24 02:48:00,11.1,2.3,30.04,NW,315,0.0,0.0,67,0.00,OVC,,0.00,WeatherDisplay:10.37,2013-01-24 07:48:00,
2013-01-24 02:53:00,10.8,1.9,30.03,NW,315,0.0,0.0,67,0.00,OVC,,0.00,WeatherDisplay:10.37,2013-01-24 07:53:00,
2013-01-24 02:58:00,10.8,2.3,30.03,NW,315,0.0,0.0,68,0.00,OVC,,0.00,WeatherDisplay:10.37,2013-01-24 07:58:00,
2013-01-24 03:03:00,10.8,2.3,30.03,NW,315,0.0,0.0,68,0.00,OVC,,0.00,WeatherDisplay:10.37,2013-01-24 08:03:00,
2013-01-24 03:08:00,10.8,2.6,30.03,NW,315,0.0,0.0,69,0.00,OVC,,0.00,WeatherDisplay:10.37,2013-01-24 08:08:00,
2013-01-24 03:13:00,10.8,2.6,30.03,NW,315,0.0,0.0,69,0.00,OVC,,0.00,WeatherDisplay:10.37,2013-01-24 08:13:00,
2013-01-24 03:18:00,10.8,2.6,30.03,NW,315,0.0,0.0,69,0.00,OVC,,0.00,WeatherDisplay:10.37,2013-01-24 08:18:00,
2013-01-24 03:23:00,10.8,2.6,30.03,NW,315,0.0,0.0,69,0.00,OVC,,0.00,WeatherDisplay:10.37,2013-01-24 08:23:00,
2013-01-24 03:28:00,10.8,2.6,30.03,NW,315,0.0,0.0,69,0.00,OVC,,0.00,WeatherDisplay:10.37,2013-01-24 08:28:00,
2013-01-24 03:33:00,10.8,2.9,30.04,West,270,0.0,0.0,70,0.00,OVC,,0.00,WeatherDisplay:10.37,2013-01-24 08:33:00,
2013-01-24 03:38:00,10.8,2.9,30.04,West,270,0.0,0.0,70,0.00,OVC,,0.00,WeatherDisplay:10.37,2013-01-24 08:38:00,
2013-01-24 03:43:00,10.8,2.9,30.04,NW,315,0.0,0.0,70,0.00,OVC,,0.00,WeatherDisplay:10.37,2013-01-24 08:43:00,
2013-01-24 03:48:00,10.8,2.9,30.04,NNW,338,0.0,0.0,70,0.00,OVC,,0.00,WeatherDisplay:10.37,2013-01-24 08:48:00,
2013-01-24 03:53:00,10.4,2.5,30.04,NW,315,0.0,0.0,70,0.00,OVC,,0.00,WeatherDisplay:10.37,2013-01-24 08:53:00,
2013-01-24 03:58:00,10.4,2.5,30.04,NW,315,0.0,0.0,70,0.00,OVC,,0.00,WeatherDisplay:10.37,2013-01-24 08:58:00,
2013-01-24 04:03:00,10.8,2.9,30.04,NW,315,0.0,0.0,70,0.00,OVC,,0.00,WeatherDisplay:10.37,2013-01-24 09:03:00,
2013-01-24 04:09:00,10.8,3.2,30.04,WNW,292,0.0,0.0,71,0.00,OVC,,0.00,WeatherDisplay:10.37,2013-01-24 09:09:00,
2013-01-24 04:14:00,10.8,3.2,30.03,NW,315,1.1,0.0,71,0.00,OVC,,0.00,WeatherDisplay:10.37,2013-01-24 09:14:00,
2013-01-24 04:19:00,10.9,3.4,30.03,NW,315,0.0,0.0,71,0.00,OVC,,0.00,WeatherDisplay:10.37,2013-01-24 09:19:00,
2013-01-24 04:24:00,11.5,3.6,30.03,NW,315,0.0,0.0,70,0.00,OVC,,0.00,WeatherDisplay:10.37,2013-01-24 09:24:00,
2013-01-24 04:29:00,11.5,3.6,30.03,NW,315,0.0,0.0,70,0.00,OVC,,0.00,WeatherDisplay:10.37,2013-01-24 09:29:00,
2013-01-24 04:34:00,11.8,3.9,30.04,WNW,292,0.0,0.0,70,0.00,OVC,,0.00,WeatherDisplay:10.37,2013-01-24 09:34:00,
2013-01-24 04:39:00,11.8,3.9,30.04,NW,315,0.0,0.0,70,0.00,OVC,,0.00,WeatherDisplay:10.37,2013-01-24 09:39:00,
2013-01-24 04:44:00,11.8,3.9,30.04,NW,315,0.0,0.0,70,0.00,OVC,,0.00,WeatherDisplay:10.37,2013-01-24 09:44:00,
2013-01-24 04:49:00,12.2,4.0,30.04,WNW,292,0.0,0.0,69,0.00,OVC,,0.00,WeatherDisplay:10.37,2013-01-24 09:49:00,
2013-01-24 04:54:00,12.2,4.0,30.04,NW,315,0.0,0.0,69,0.00,OVC,,0.00,WeatherDisplay:10.37,2013-01-24 09:54:00,
2013-01-24 04:59:00,12.2,4.0,30.04,NW,315,0.0,0.0,69,0.00,OVC,,0.00,WeatherDisplay:10.37,2013-01-24 09:59:00,
2013-01-24 05:04:00,12.2,3.6,30.04,NNW,338,0.0,0.0,68,0.00,OVC,,0.00,WeatherDisplay:10.37,2013-01-24 10:04:00,
2013-01-24 05:09:00,12.4,3.8,30.04,NNW,338,0.0,0.2,68,0.00,OVC,,0.00,WeatherDisplay:10.37,2013-01-24 10:09:00,
2013-01-24 05:14:00,12.4,3.8,30.04,NW,315,2.3,2.3,68,0.00,OVC,,0.00,WeatherDisplay:10.37,2013-01-24 10:14:00,
2013-01-24 05:19:00,12.4,3.8,30.04,NNE,22,0.0,0.6,68,0.00,OVC,,0.00,WeatherDisplay:10.37,2013-01-24 10:19:00,
2013-01-24 05:24:00,12.6,4.0,30.04,NNW,338,0.0,0.2,68,0.00,OVC,,0.00,WeatherDisplay:10.37,2013-01-24 10:24:00,
2013-01-24 05:29:00,12.6,4.0,30.04,NW,315,0.0,0.1,68,0.00,OVC,,0.00,WeatherDisplay:10.37,2013-01-24 10:29:00,
2013-01-24 05:34:00,12.6,4.0,30.06,NW,315,0.0,0.2,68,0.00,OVC,,0.00,WeatherDisplay:10.37,2013-01-24 10:34:00,
2013-01-24 05:40:00,12.6,4.0,30.06,NW,315,0.0,0.2,68,0.00,OVC,,0.00,WeatherDisplay:10.37,2013-01-24 10:40:00,
2013-01-24 05:45:00,12.6,4.0,30.06,NW,315,1.1,1.1,68,0.00,OVC,,0.00,WeatherDisplay:10.37,2013-01-24 10:45:00,
2013-01-24 05:50:00,12.6,3.7,30.06,NW,315,1.1,1.1,67,0.00,OVC,,0.00,WeatherDisplay:10.37,2013-01-24 10:50:00,
2013-01-24 05:55:00,12.9,4.0,30.06,NNW,338,1.1,1.1,67,0.00,OVC,,0.00,WeatherDisplay:10.37,2013-01-24 10:55:00,
2013-01-24 06:00:00,12.6,3.7,30.06,NW,315,2.3,2.3,67,0.00,OVC,,0.00,WeatherDisplay:10.37,2013-01-24 11:00:00,
2013-01-24 06:05:00,12.6,3.7,30.06,NW,315,0.0,0.3,67,0.00,OVC,,0.00,WeatherDisplay:10.37,2013-01-24 11:05:00,
2013-01-24 06:10:00,12.6,3.7,30.06,NE,45,1.1,1.1,67,0.00,OVC,,0.00,WeatherDisplay:10.37,2013-01-24 11:10:00,
2013-01-24 06:16:00,12.6,3.3,30.07,NW,315,0.0,0.3,66,0.00,OVC,,0.00,WeatherDisplay:10.37,2013-01-24 11:16:00,
2013-01-24 06:21:00,12.4,3.5,30.07,NW,315,2.3,2.3,67,0.00,OVC,,0.00,WeatherDisplay:10.37,2013-01-24 11:21:00,
2013-01-24 06:26:00,12.6,3.7,30.07,NW,315,2.3,2.3,67,0.00,OVC,,0.00,WeatherDisplay:10.37,2013-01-24 11:26:00,
2013-01-24 06:31:00,12.2,3.3,30.08,NW,315,1.1,1.1,67,0.00,OVC,,0.00,WeatherDisplay:10.37,2013-01-24 11:31:00,
2013-01-24 06:36:00,12.2,3.3,30.08,NNW,338,2.3,2.3,67,0.00,OVC,,0.00,WeatherDisplay:10.37,2013-01-24 11:36:00,
2013-01-24 06:41:00,12.2,3.3,30.08,NW,315,2.3,2.3,67,0.00,OVC,,0.00,WeatherDisplay:10.37,2013-01-24 11:41:00,
2013-01-24 06:46:00,12.0,3.2,30.08,NW,315,0.0,0.6,67,0.00,OVC,,0.00,WeatherDisplay:10.37,2013-01-24 11:46:00,
2013-01-24 06:51:00,12.2,3.3,30.08,NNW,338,1.1,1.1,67,0.00,OVC,,0.00,WeatherDisplay:10.37,2013-01-24 11:51:00,
2013-01-24 06:56:00,12.2,3.3,30.08,WNW,292,0.0,0.2,67,0.00,OVC,,0.00,WeatherDisplay:10.37,2013-01-24 11:56:00,
2013-01-24 07:01:00,12.2,3.3,30.08,NW,315,0.0,0.2,67,0.00,OVC,,0.00,WeatherDisplay:10.37,2013-01-24 12:01:00,
2013-01-24 07:06:00,11.8,3.0,30.08,NW,315,1.1,1.1,67,0.00,OVC,,0.00,WeatherDisplay:10.37,2013-01-24 12:06:00,
2013-01-24 07:11:00,11.8,3.3,30.09,NW,315,1.1,1.1,68,0.00,OVC,,0.00,WeatherDisplay:10.37,2013-01-24 12:11:00,
2013-01-24 07:16:00,11.7,3.1,30.09,NW,315,0.0,0.3,68,0.00,OVC,,0.00,WeatherDisplay:10.37,2013-01-24 12:16:00,
2013-01-24 07:21:00,11.7,3.1,30.09,NNW,338,1.1,1.1,68,0.00,OVC,,0.00,WeatherDisplay:10.37,2013-01-24 12:21:00,
2013-01-24 07:26:00,11.7,3.1,30.09,NW,315,0.0,0.1,68,0.00,OVC,,0.00,WeatherDisplay:10.37,2013-01-24 12:26:00,
2013-01-24 07:31:00,11.5,3.0,30.09,NW,315,0.0,0.1,68,0.00,OVC,,0.00,WeatherDisplay:10.37,2013-01-24 12:31:00,
2013-01-24 07:36:00,11.5,3.0,30.09,NW,315,0.0,0.2,68,0.00,OVC,,0.00,WeatherDisplay:10.37,2013-01-24 12:36:00,
2013-01-24 07:41:00,11.5,3.0,30.09,NW,315,0.0,0.3,68,0.00,OVC,,0.00,WeatherDisplay:10.37,2013-01-24 12:41:00,
2013-01-24 07:46:00,11.7,3.1,30.09,NW,315,1.1,1.1,68,0.00,OVC,,0.00,WeatherDisplay:10.37,2013-01-24 12:46:00,
2013-01-24 07:51:00,11.7,3.1,30.10,NNW,338,2.3,2.3,68,0.00,OVC,,0.00,WeatherDisplay:10.37,2013-01-24 12:51:00,
2013-01-24 07:56:00,12.2,3.6,30.10,NNW,338,4.6,4.6,68,0.00,OVC,,0.00,WeatherDisplay:10.37,2013-01-24 12:56:00,
2013-01-24 08:01:00,12.2,3.3,30.10,NW,315,3.5,3.5,67,0.00,OVC,,0.00,WeatherDisplay:10.37,2013-01-24 13:01:00,
2013-01-24 08:06:00,12.2,3.0,30.10,NW,315,4.6,4.6,66,0.00,OVC,,0.00,WeatherDisplay:10.37,2013-01-24 13:06:00,
2013-01-24 08:11:00,12.9,3.7,30.10,ESE,112,3.5,3.5,66,0.00,OVC,,0.00,WeatherDisplay:10.37,2013-01-24 13:11:00,
2013-01-24 08:16:00,12.9,3.7,30.10,NNW,338,5.8,5.8,66,0.00,OVC,,0.00,WeatherDisplay:10.37,2013-01-24 13:16:00,
2013-01-24 08:21:00,13.3,3.7,30.10,NW,315,8.1,8.1,65,0.00,OVC,,0.00,WeatherDisplay:10.37,2013-01-24 13:21:00,
2013-01-24 08:26:00,13.6,3.7,30.10,NNW,338,4.6,4.6,64,0.00,OVC,,0.00,WeatherDisplay:10.37,2013-01-24 13:26:00,
2013-01-24 08:31:00,14.0,3.7,30.11,NW,315,4.6,4.6,63,0.00,OVC,,0.00,WeatherDisplay:10.37,2013-01-24 13:31:00,
2013-01-24 08:36:00,14.4,4.1,30.11,NW,315,3.5,3.5,63,0.00,OVC,,0.00,WeatherDisplay:10.37,2013-01-24 13:36:00,
2013-01-24 08:41:00,14.7,3.7,30.11,NNE,22,4.6,4.6,61,0.00,OVC,,0.00,WeatherDisplay:10.37,2013-01-24 13:41:00,
2013-01-24 08:46:00,15.1,4.0,30.11,NW,315,2.3,3.0,61,0.00,OVC,,0.00,WeatherDisplay:10.37,2013-01-24 13:46:00,
2013-01-24 08:51:00,15.8,4.4,30.11,NW,315,4.6,4.6,60,0.00,OVC,,0.00,WeatherDisplay:10.37,2013-01-24 13:51:00,
2013-01-24 08:56:00,16.5,4.7,30.11,North,0,4.6,4.6,59,0.00,OVC,,0.00,WeatherDisplay:10.37,2013-01-24 13:56:00,
2013-01-24 09:01:00,16.5,4.3,30.11,NW,315,7.2,7.2,58,0.00,OVC,,0.00,WeatherDisplay:10.37,2013-01-24 14:01:00,
2013-01-24 09:06:00,16.9,4.3,30.11,NW,315,5.8,5.8,57,0.00,OVC,,0.00,WeatherDisplay:10.37,2013-01-24 14:06:00,
2013-01-24 09:11:00,17.2,4.6,30.12,NNE,22,4.6,4.6,57,0.00,OVC,,0.00,WeatherDisplay:10.37,2013-01-24 14:11:00,
2013-01-24 09:16:00,17.4,4.4,30.12,NNW,338,5.8,5.8,56,0.00,OVC,,0.00,WeatherDisplay:10.37,2013-01-24 14:16:00,
2013-01-24 09:21:00,17.6,4.2,30.12,ENE,68,4.6,4.6,55,0.00,OVC,,0.00,WeatherDisplay:10.37,2013-01-24 14:21:00,
2013-01-24 09:26:00,17.6,3.3,30.12,NNW,338,4.6,4.6,53,0.00,OVC,,0.00,WeatherDisplay:10.37,2013-01-24 14:26:00,
2013-01-24 09:31:00,18.0,3.7,30.12,NNW,338,6.0,6.0,53,0.00,OVC,,0.00,WeatherDisplay:10.37,2013-01-24 14:31:00,
2013-01-24 09:36:00,18.0,3.3,30.12,West,270,6.9,6.9,52,0.00,OVC,,0.00,WeatherDisplay:10.37,2013-01-24 14:36:00,
2013-01-24 09:41:00,18.0,2.9,30.12,NNE,22,9.2,9.2,51,0.00,OVC,,0.00,WeatherDisplay:10.37,2013-01-24 14:41:00,
2013-01-24 09:46:00,18.3,3.2,30.12,NNE,22,6.9,6.9,51,0.00,OVC,,0.00,WeatherDisplay:10.37,2013-01-24 14:46:00,
2013-01-24 09:51:00,18.3,2.8,30.12,NNW,338,6.9,6.9,50,0.00,OVC,,0.00,WeatherDisplay:10.37,2013-01-24 14:51:00,
2013-01-24 09:56:00,18.7,3.1,30.12,NW,315,6.9,6.9,50,0.00,OVC,,0.00,WeatherDisplay:10.37,2013-01-24 14:56:00,
2013-01-24 10:01:00,19.0,3.4,30.12,NW,315,5.8,5.8,50,0.00,OVC,,0.00,WeatherDisplay:10.37,2013-01-24 15:01:00,
2013-01-24 10:06:00,19.4,3.8,30.12,NW,315,6.9,6.9,50,0.00,OVC,,0.00,WeatherDisplay:10.37,2013-01-24 15:06:00,
2013-01-24 10:11:00,20.1,4.4,30.14,NW,315,5.8,5.8,50,0.00,OVC,,0.00,WeatherDisplay:10.37,2013-01-24 15:11:00,
2013-01-24 10:16:00,20.1,3.1,30.14,NNW,338,7.1,7.1,47,0.00,OVC,,0.00,WeatherDisplay:10.37,2013-01-24 15:16:00,
2013-01-24 10:21:00,20.5,3.4,30.14,NNE,22,6.9,6.9,47,0.00,OVC,,0.00,WeatherDisplay:10.37,2013-01-24 15:21:00,
2013-01-24 10:26:00,21.2,3.6,30.14,NW,315,6.9,6.9,46,0.00,OVC,,0.00,WeatherDisplay:10.37,2013-01-24 15:26:00,
2013-01-24 10:31:00,21.6,2.0,30.15,WNW,292,16.1,16.1,42,0.00,OVC,,0.00,WeatherDisplay:10.37,2013-01-24 15:31:00,
2013-01-24 10:36:00,21.6,2.5,30.15,NW,315,8.2,8.2,43,0.00,OVC,,0.00,WeatherDisplay:10.37,2013-01-24 15:36:00,
2013-01-24 10:41:00,21.7,1.1,30.15,NNW,338,10.4,10.4,40,0.00,OVC,,0.00,WeatherDisplay:10.37,2013-01-24 15:41:00,
2013-01-24 10:46:00,21.9,0.2,30.15,NE,45,10.4,10.4,38,0.00,OVC,,0.00,WeatherDisplay:10.37,2013-01-24 15:46:00,
2013-01-24 10:51:00,22.3,1.0,30.15,NW,315,12.7,12.7,39,0.00,OVC,,0.00,WeatherDisplay:10.37,2013-01-24 15:51:00,
2013-01-24 10:56:00,22.3,0.5,30.15,NW,315,6.9,6.9,38,0.00,OVC,,0.00,WeatherDisplay:10.37,2013-01-24 15:56:00,
2013-01-24 11:01:00,22.5,1.2,30.15,NW,315,9.2,9.2,39,0.00,OVC,,0.00,WeatherDisplay:10.37,2013-01-24 16:01:00,
2013-01-24 11:06:00,23.0,1.1,30.15,NNW,338,9.2,9.2,38,0.00,OVC,,0.00,WeatherDisplay:10.37,2013-01-24 16:06:00,
2013-01-24 11:11:00,23.0,0.6,30.15,NE,45,8.1,8.1,37,0.00,OVC,,0.00,WeatherDisplay:10.37,2013-01-24 16:11:00,
2013-01-24 11:16:00,23.4,0.9,30.15,NW,315,9.5,9.5,37,0.00,OVC,,0.00,WeatherDisplay:10.37,2013-01-24 16:16:00,
2013-01-24 11:21:00,22.6,-0.4,30.15,NW,315,5.8,5.8,36,0.00,OVC,,0.00,WeatherDisplay:10.37,2013-01-24 16:21:00,
2013-01-24 11:26:00,23.0,-0.6,30.15,NW,315,9.2,9.2,35,0.00,OVC,,0.00,WeatherDisplay:10.37,2013-01-24 16:26:00,
2013-01-24 11:31:00,23.4,-1.6,30.14,North,0,9.2,9.2,33,0.00,OVC,,0.00,WeatherDisplay:10.37,2013-01-24 16:31:00,
2013-01-24 11:36:00,23.2,-1.7,30.14,NNW,338,12.7,12.7,33,0.00,OVC,,0.00,WeatherDisplay:10.37,2013-01-24 16:36:00,
2013-01-24 11:41:00,23.2,-2.4,30.14,North,0,9.2,9.2,32,0.00,OVC,,0.00,WeatherDisplay:10.37,2013-01-24 16:41:00,
2013-01-24 11:46:00,23.4,-1.6,30.14,NNW,338,5.8,5.8,33,0.00,OVC,,0.00,WeatherDisplay:10.37,2013-01-24 16:46:00,
2013-01-24 11:51:00,23.7,-2.6,30.14,ENE,68,9.2,9.2,31,0.00,OVC,,0.00,WeatherDisplay:10.37,2013-01-24 16:51:00,
2013-01-24 11:56:00,23.4,-2.9,30.14,NW,315,11.5,11.5,31,0.00,OVC,,0.00,WeatherDisplay:10.37,2013-01-24 16:56:00,
2013-01-24 12:01:00,23.4,-2.2,30.14,NNW,338,11.6,11.6,32,0.00,OVC,,0.00,WeatherDisplay:10.37,2013-01-24 17:01:00,
2013-01-24 12:06:00,23.7,-1.9,30.14,NW,315,8.2,8.2,32,0.00,OVC,,0.00,WeatherDisplay:10.37,2013-01-24 17:06:00,
2013-01-24 12:11:00,23.7,-1.9,30.14,NW,315,8.2,8.2,32,0.00,OVC,,0.00,WeatherDisplay:10.37,2013-01-24 17:11:00,
2013-01-24 12:16:00,23.9,-1.7,30.14,NNW,338,10.4,10.4,32,0.00,OVC,,0.00,WeatherDisplay:10.37,2013-01-24 17:16:00,
2013-01-24 12:21:00,23.9,-1.7,30.14,NE,45,9.2,9.2,32,0.00,OVC,,0.00,WeatherDisplay:10.37,2013-01-24 17:21:00,
2013-01-24 12:26:00,24.1,-2.2,30.14,NNW,338,13.5,13.5,31,0.00,OVC,,0.00,WeatherDisplay:10.37,2013-01-24 17:26:00,
2013-01-24 12:31:00,24.1,-2.9,30.14,ESE,112,11.5,11.5,30,0.00,OVC,,0.00,WeatherDisplay:10.37,2013-01-24 17:31:00,
2013-01-24 12:36:00,24.1,-2.9,30.14,NNW,338,12.5,12.5,30,0.00,OVC,,0.00,WeatherDisplay:10.37,2013-01-24 17:36:00,
2013-01-24 12:41:00,24.4,-1.9,30.14,NW,315,9.2,9.2,31,0.00,OVC,,0.00,WeatherDisplay:10.37,2013-01-24 17:41:00,
2013-01-24 12:46:00,24.4,-1.9,30.14,NW,315,13.5,13.5,31,0.00,OVC,,0.00,WeatherDisplay:10.37,2013-01-24 17:46:00,
2013-01-24 12:51:00,24.4,-2.6,30.14,NNW,338,13.8,13.8,30,0.00,OVC,,0.00,WeatherDisplay:10.37,2013-01-24 17:51:00,
2013-01-24 12:56:00,24.4,-1.9,30.14,NW,315,8.1,8.1,31,0.00,OVC,,0.00,WeatherDisplay:10.37,2013-01-24 17:56:00,
2013-01-24 13:01:00,24.6,-1.8,30.14,NNW,338,6.9,7.0,31,0.00,OVC,,0.00,WeatherDisplay:10.37,2013-01-24 18:01:00,
2013-01-24 13:06:00,24.8,-2.3,30.14,NW,315,11.5,11.5,30,0.00,OVC,,0.00,WeatherDisplay:10.37,2013-01-24 18:06:00,
2013-01-24 13:11:00,24.8,-2.3,30.15,NNE,22,18.2,18.2,30,0.00,OVC,,0.00,WeatherDisplay:10.37,2013-01-24 18:11:00,
2013-01-24 13:16:00,24.6,-2.5,30.15,NW,315,10.4,10.4,30,0.00,OVC,,0.00,WeatherDisplay:10.37,2013-01-24 18:16:00,
2013-01-24 13:21:00,24.6,-3.2,30.15,NW,315,17.3,17.3,29,0.00,OVC,,0.00,WeatherDisplay:10.37,2013-01-24 18:21:00,
2013-01-24 13:26:00,24.4,-3.3,30.15,NNE,22,17.5,17.5,29,0.00,OVC,,0.00,WeatherDisplay:10.37,2013-01-24 18:26:00,
2013-01-24 13:31:00,24.1,-3.6,30.14,NW,315,18.4,18.4,29,0.00,OVC,,0.00,WeatherDisplay:10.37,2013-01-24 18:31:00,
2013-01-24 13:36:00,24.1,-2.9,30.14,South,180,17.3,17.3,30,0.00,OVC,,0.00,WeatherDisplay:10.37,2013-01-24 18:36:00,
2013-01-24 13:41:00,23.9,-3.1,30.14,NNE,22,13.1,13.1,30,0.00,OVC,,0.00,WeatherDisplay:10.37,2013-01-24 18:41:00,
2013-01-24 13:46:00,24.4,-1.9,30.14,NNW,338,12.7,12.7,31,0.00,OVC,,0.00,WeatherDisplay:10.37,2013-01-24 18:46:00,
2013-01-24 13:51:00,24.4,-2.6,30.15,NW,315,11.5,11.5,30,0.00,OVC,,0.00,WeatherDisplay:10.37,2013-01-24 18:51:00,
2013-01-24 13:56:00,24.6,-2.5,30.15,NW,315,11.5,11.5,30,0.00,OVC,,0.00,WeatherDisplay:10.37,2013-01-24 18:56:00,
2013-01-24 14:01:00,24.8,-1.6,30.15,NW,315,12.7,12.7,31,0.00,OVC,,0.00,WeatherDisplay:10.37,2013-01-24 19:01:00,
2013-01-24 14:06:00,24.6,-1.8,30.15,NNE,22,16.1,16.1,31,0.00,OVC,,0.00,WeatherDisplay:10.37,2013-01-24 19:06:00,
2013-01-24 14:11:00,25.2,-2.0,30.15,West,270,15.0,15.0,30,0.00,OVC,,0.00,WeatherDisplay:10.37,2013-01-24 19:11:00,
2013-01-24 14:16:00,24.8,-1.6,30.15,NW,315,12.7,12.7,31,0.00,OVC,,0.00,WeatherDisplay:10.37,2013-01-24 19:16:00,
2013-01-24 14:21:00,24.8,-2.3,30.15,NW,315,10.4,10.4,30,0.00,OVC,,0.00,WeatherDisplay:10.37,2013-01-24 19:21:00,
2013-01-24 14:26:00,24.4,-2.6,30.15,NW,315,18.4,18.4,30,0.00,OVC,,0.00,WeatherDisplay:10.37,2013-01-24 19:26:00,
2013-01-24 14:31:00,24.4,-2.6,30.16,WNW,292,12.7,12.7,30,0.00,OVC,,0.00,WeatherDisplay:10.37,2013-01-24 19:31:00,
2013-01-24 14:36:00,24.4,-2.6,30.16,NNW,338,15.0,15.0,30,0.00,OVC,,0.00,WeatherDisplay:10.37,2013-01-24 19:36:00,
2013-01-24 14:42:00,24.6,-2.5,30.16,NW,315,11.5,11.5,30,0.00,OVC,,0.00,WeatherDisplay:10.37,2013-01-24 19:42:00,
2013-01-24 14:47:00,24.4,-2.6,30.16,NNW,338,13.8,13.8,30,0.00,OVC,,0.00,WeatherDisplay:10.37,2013-01-24 19:47:00,
2013-01-24 14:52:00,24.4,-2.6,30.17,NW,315,9.2,9.2,30,0.00,OVC,,0.00,WeatherDisplay:10.37,2013-01-24 19:52:00,
2013-01-24 14:57:00,24.4,-2.6,30.17,NNW,338,12.7,12.7,30,0.00,OVC,,0.00,WeatherDisplay:10.37,2013-01-24 19:57:00,
2013-01-24 15:02:00,24.4,-1.9,30.17,NW,315,8.1,8.1,31,0.00,OVC,,0.00,WeatherDisplay:10.37,2013-01-24 20:02:00,
2013-01-24 15:07:00,24.4,-1.9,30.17,NW,315,6.9,7.2,31,0.00,OVC,,0.00,WeatherDisplay:10.37,2013-01-24 20:07:00,
2013-01-24 15:12:00,24.4,-1.3,30.17,NW,315,6.9,7.2,32,0.00,OVC,,0.00,WeatherDisplay:10.37,2013-01-24 20:12:00,
2013-01-24 15:17:00,24.1,-2.2,30.17,NW,315,11.5,11.5,31,0.00,OVC,,0.00,WeatherDisplay:10.37,2013-01-24 20:17:00,
2013-01-24 15:22:00,24.1,-2.2,30.17,NNW,338,11.5,11.5,31,0.00,OVC,,0.00,WeatherDisplay:10.37,2013-01-24 20:22:00,
2013-01-24 15:27:00,24.1,-2.2,30.17,NNW,338,13.3,13.3,31,0.00,OVC,,0.00,WeatherDisplay:10.37,2013-01-24 20:27:00,
2013-01-24 15:32:00,23.7,-2.6,30.19,SSW,202,13.8,13.8,31,0.00,OVC,,0.00,WeatherDisplay:10.37,2013-01-24 20:32:00,
2013-01-24 15:37:00,23.7,-1.9,30.19,NW,315,13.8,13.8,32,0.00,OVC,,0.00,WeatherDisplay:10.37,2013-01-24 20:37:00,
2013-01-24 15:42:00,23.7,-1.9,30.19,NW,315,9.2,9.8,32,0.00,OVC,,0.00,WeatherDisplay:10.37,2013-01-24 20:42:00,
2013-01-24 15:47:00,23.4,-1.6,30.19,NW,315,9.2,9.4,33,0.00,OVC,,0.00,WeatherDisplay:10.37,2013-01-24 20:47:00,
2013-01-24 15:52:00,23.0,-1.9,30.20,NW,315,15.0,15.0,33,0.00,OVC,,0.00,WeatherDisplay:10.37,2013-01-24 20:52:00,
2013-01-24 15:57:00,23.2,-1.7,30.20,NW,315,12.7,12.7,33,0.00,OVC,,0.00,WeatherDisplay:10.37,2013-01-24 20:57:00,
2013-01-24 16:02:00,23.0,-1.9,30.20,NW,315,15.0,15.0,33,0.00,OVC,,0.00,WeatherDisplay:10.37,2013-01-24 21:02:00,
2013-01-24 16:07:00,23.0,-1.2,30.20,NW,315,10.4,10.4,34,0.00,OVC,,0.00,WeatherDisplay:10.37,2013-01-24 21:07:00,
2013-01-24 16:12:00,22.6,-1.6,30.20,NW,315,9.2,9.2,34,0.00,OVC,,0.00,WeatherDisplay:10.37,2013-01-24 21:12:00,
2013-01-24 16:17:00,22.5,-1.7,30.20,NW,315,13.8,13.8,34,0.00,OVC,,0.00,WeatherDisplay:10.37,2013-01-24 21:17:00,
2013-01-24 16:22:00,22.3,-1.9,30.20,West,270,8.1,8.1,34,0.00,OVC,,0.00,WeatherDisplay:10.37,2013-01-24 21:22:00,
2013-01-24 16:27:00,22.3,-1.3,30.20,NNW,338,5.9,7.6,35,0.00,OVC,,0.00,WeatherDisplay:10.37,2013-01-24 21:27:00,
2013-01-24 16:32:00,22.3,-1.3,30.21,NNW,338,5.8,6.6,35,0.00,OVC,,0.00,WeatherDisplay:10.37,2013-01-24 21:32:00,
2013-01-24 16:37:00,21.9,-1.0,30.21,NE,45,6.9,6.9,36,0.00,OVC,,0.00,WeatherDisplay:10.37,2013-01-24 21:37:00,
2013-01-24 16:42:00,21.7,-1.8,30.21,NW,315,16.1,16.1,35,0.00,OVC,,0.00,WeatherDisplay:10.37,2013-01-24 21:42:00,
2013-01-24 16:47:00,21.6,-1.3,30.21,NW,315,16.1,16.1,36,0.00,OVC,,0.00,WeatherDisplay:10.37,2013-01-24 21:47:00,
2013-01-24 16:52:00,21.6,-1.3,30.22,NW,315,11.5,11.5,36,0.00,OVC,,0.00,WeatherDisplay:10.37,2013-01-24 21:52:00,
2013-01-24 16:57:00,21.6,-1.3,30.22,NW,315,13.8,13.8,36,0.00,OVC,,0.00,WeatherDisplay:10.37,2013-01-24 21:57:00,
2013-01-24 17:02:00,21.0,-1.8,30.22,NW,315,9.3,9.3,36,0.00,OVC,,0.00,WeatherDisplay:10.37,2013-01-24 22:02:00,
2013-01-24 17:07:00,21.2,-1.6,30.22,NW,315,11.5,11.5,36,0.00,OVC,,0.00,WeatherDisplay:10.37,2013-01-24 22:07:00,
2013-01-24 17:12:00,20.8,-1.4,30.24,NNW,338,5.8,7.0,37,0.00,OVC,,0.00,WeatherDisplay:10.37,2013-01-24 22:12:00,
2013-01-24 17:17:00,20.8,-1.4,30.24,NW,315,5.8,5.8,37,0.00,OVC,,0.00,WeatherDisplay:10.37,2013-01-24 22:17:00,
2013-01-24 17:22:00,20.8,-0.8,30.24,WNW,292,6.0,6.0,38,0.00,OVC,,0.00,WeatherDisplay:10.37,2013-01-24 22:22:00,
2013-01-24 17:27:00,20.8,-0.8,30.24,NW,315,7.9,7.9,38,0.00,OVC,,0.00,WeatherDisplay:10.37,2013-01-24 22:27:00,
2013-01-24 17:32:00,20.5,-0.6,30.25,NNW,338,6.9,6.9,39,0.00,OVC,,0.00,WeatherDisplay:10.37,2013-01-24 22:32:00,
2013-01-24 17:37:00,20.5,-0.6,30.25,NW,315,12.7,12.7,39,0.00,OVC,,0.00,WeatherDisplay:10.37,2013-01-24 22:37:00,
2013-01-24 17:42:00,20.5,-1.1,30.25,WNW,292,8.1,8.1,38,0.00,OVC,,0.00,WeatherDisplay:10.37,2013-01-24 22:42:00,
2013-01-24 17:47:00,20.5,-1.1,30.25,NNW,338,8.1,8.1,38,0.00,OVC,,0.00,WeatherDisplay:10.37,2013-01-24 22:47:00,
2013-01-24 17:52:00,20.3,-1.3,30.26,NW,315,10.4,10.4,38,0.00,OVC,,0.00,WeatherDisplay:10.37,2013-01-24 22:52:00,
2013-01-24 17:57:00,20.1,-1.5,30.26,West,270,8.1,8.1,38,0.00,OVC,,0.00,WeatherDisplay:10.37,2013-01-24 22:57:00,
2013-01-24 18:02:00,20.1,-2.0,30.26,West,270,8.1,8.1,37,0.00,OVC,,0.00,WeatherDisplay:10.37,2013-01-24 23:02:00,
2013-01-24 18:07:00,20.1,-2.6,30.26,NW,315,6.9,6.9,36,0.00,OVC,,0.00,WeatherDisplay:10.37,2013-01-24 23:07:00,
2013-01-24 18:12:00,19.9,-2.8,30.28,NW,315,6.9,6.9,36,0.00,OVC,,0.00,WeatherDisplay:10.37,2013-01-24 23:12:00,
2013-01-24 18:17:00,20.1,-2.6,30.28,WSW,248,9.2,9.2,36,0.00,OVC,,0.00,WeatherDisplay:10.37,2013-01-24 23:17:00,
2013-01-24 18:22:00,19.8,-2.9,30.28,NW,315,11.5,11.5,36,0.00,OVC,,0.00,WeatherDisplay:10.37,2013-01-24 23:22:00,
2013-01-24 18:27:00,19.8,-2.9,30.28,West,270,5.8,6.8,36,0.00,OVC,,0.00,WeatherDisplay:10.37,2013-01-24 23:27:00,
2013-01-24 18:32:00,19.6,-2.5,30.28,NW,315,8.1,8.1,37,0.00,OVC,,0.00,WeatherDisplay:10.37,2013-01-24 23:32:00,
2013-01-24 18:37:00,19.4,-3.3,30.28,NNW,338,9.2,9.2,36,0.00,OVC,,0.00,WeatherDisplay:10.37,2013-01-24 23:37:00,
2013-01-24 18:42:00,19.4,-2.7,30.28,WSW,248,11.5,11.5,37,0.00,OVC,,0.00,WeatherDisplay:10.37,2013-01-24 23:42:00,
2013-01-24 18:47:00,19.4,-2.7,30.28,NW,315,8.1,8.1,37,0.00,OVC,,0.00,WeatherDisplay:10.37,2013-01-24 23:47:00,
2013-01-24 18:52:00,19.4,-2.1,30.30,NW,315,8.1,8.1,38,0.00,OVC,,0.00,WeatherDisplay:10.37,2013-01-24 23:52:00,
2013-01-24 18:57:00,19.4,-2.1,30.30,West,270,8.1,8.1,38,0.00,OVC,,0.00,WeatherDisplay:10.37,2013-01-24 23:57:00,
2013-01-24 19:02:00,19.4,-2.1,30.30,NNW,338,6.9,6.9,38,0.00,OVC,,0.00,WeatherDisplay:10.37,2013-01-25 00:02:00,
2013-01-24 19:07:00,19.0,-1.9,30.30,NE,45,8.1,8.1,39,0.00,OVC,,0.00,WeatherDisplay:10.37,2013-01-25 00:07:00,
2013-01-24 19:12:00,19.0,-1.9,30.29,NW,315,4.6,6.0,39,0.00,OVC,,0.00,WeatherDisplay:10.37,2013-01-25 00:12:00,
2013-01-24 19:17:00,18.9,-1.5,30.29,WNW,292,5.8,5.8,40,0.00,OVC,,0.00,WeatherDisplay:10.37,2013-01-25 00:17:00,
2013-01-24 19:22:00,18.9,-1.5,30.29,NW,315,9.2,9.2,40,0.00,OVC,,0.00,WeatherDisplay:10.37,2013-01-25 00:22:00,
2013-01-24 19:27:00,19.0,-1.4,30.29,WNW,292,5.8,6.2,40,0.00,OVC,,0.00,WeatherDisplay:10.37,2013-01-25 00:27:00,
2013-01-24 19:32:00,18.7,-1.7,30.30,NW,315,11.5,11.5,40,0.00,OVC,,0.00,WeatherDisplay:10.37,2013-01-25 00:32:00,
2013-01-24 19:37:00,18.7,-1.2,30.30,West,270,8.1,8.1,41,0.00,OVC,,0.00,WeatherDisplay:10.37,2013-01-25 00:37:00,
2013-01-24 19:42:00,18.7,-1.2,30.30,NW,315,11.5,11.5,41,0.00,OVC,,0.00,WeatherDisplay:10.37,2013-01-25 00:42:00,
2013-01-24 19:47:00,18.7,-1.2,30.30,NW,315,6.9,6.9,41,0.00,OVC,,0.00,WeatherDisplay:10.37,2013-01-25 00:47:00,
2013-01-24 19:52:00,18.7,-0.7,30.30,NW,315,5.8,5.8,42,0.00,OVC,,0.00,WeatherDisplay:10.37,2013-01-25 00:52:00,
2013-01-24 19:57:00,18.3,-1.0,30.30,West,270,3.5,4.3,42,0.00,OVC,,0.00,WeatherDisplay:10.37,2013-01-25 00:57:00,
2013-01-24 20:02:00,18.1,-1.1,30.30,NE,45,10.4,10.4,42,0.00,OVC,,0.00,WeatherDisplay:10.37,2013-01-25 01:02:00,
2013-01-24 20:07:00,18.3,-0.5,30.30,NNW,338,6.9,6.9,43,0.00,OVC,,0.00,WeatherDisplay:10.37,2013-01-25 01:07:00,
2013-01-24 20:12:00,18.3,-0.5,30.30,WNW,292,6.9,6.9,43,0.00,OVC,,0.00,WeatherDisplay:10.37,2013-01-25 01:12:00,
2013-01-24 20:17:00,18.0,-0.8,30.30,North,0,9.2,9.2,43,0.00,OVC,,0.00,WeatherDisplay:10.37,2013-01-25 01:17:00,
2013-01-24 20:22:00,18.0,-0.8,30.30,West,270,12.7,12.7,43,0.00,OVC,,0.00,WeatherDisplay:10.37,2013-01-25 01:22:00,
2013-01-24 20:27:00,18.0,-0.8,30.30,North,0,6.9,6.9,43,0.00,OVC,,0.00,WeatherDisplay:10.37,2013-01-25 01:27:00,
2013-01-24 20:32:00,18.0,-0.8,30.30,NNW,338,9.2,9.2,43,0.00,OVC,,0.00,WeatherDisplay:10.37,2013-01-25 01:32:00,
2013-01-24 20:37:00,18.0,-0.3,30.30,WSW,248,5.8,5.8,44,0.00,OVC,,0.00,WeatherDisplay:10.37,2013-01-25 01:37:00,
2013-01-24 20:42:00,18.0,-0.3,30.30,NW,315,10.4,10.4,44,0.00,OVC,,0.00,WeatherDisplay:10.37,2013-01-25 01:42:00,
2013-01-24 20:47:00,18.0,-0.3,30.30,NNW,338,8.4,8.4,44,0.00,OVC,,0.00,WeatherDisplay:10.37,2013-01-25 01:47:00,
2013-01-24 20:52:00,17.6,-0.6,30.31,NW,315,5.8,5.8,44,0.00,OVC,,0.00,WeatherDisplay:10.37,2013-01-25 01:52:00,
2013-01-24 20:57:00,17.6,-0.6,30.31,West,270,9.2,9.2,44,0.00,OVC,,0.00,WeatherDisplay:10.37,2013-01-25 01:57:00,
2013-01-24 21:02:00,17.6,-0.6,30.31,NW,315,3.5,5.1,44,0.00,OVC,,0.00,WeatherDisplay:10.37,2013-01-25 02:02:00,
2013-01-24 21:07:00,17.6,-0.6,30.31,NW,315,8.1,8.1,44,0.00,OVC,,0.00,WeatherDisplay:10.37,2013-01-25 02:07:00,
2013-01-24 21:12:00,17.4,-0.8,30.31,WNW,292,5.8,5.8,44,0.00,OVC,,0.00,WeatherDisplay:10.37,2013-01-25 02:12:00,
2013-01-24 21:17:00,17.6,-0.6,30.31,NW,315,4.6,4.6,44,0.00,OVC,,0.00,WeatherDisplay:10.37,2013-01-25 02:17:00,
2013-01-24 21:22:00,17.2,-0.5,30.31,West,270,3.9,3.9,45,0.00,OVC,,0.00,WeatherDisplay:10.37,2013-01-25 02:22:00,
2013-01-24 21:27:00,17.2,-0.5,30.31,NW,315,4.6,4.6,45,0.00,OVC,,0.00,WeatherDisplay:10.37,2013-01-25 02:27:00,
2013-01-24 21:32:00,17.2,-0.5,30.31,West,270,6.9,6.9,45,0.00,OVC,,0.00,WeatherDisplay:10.37,2013-01-25 02:32:00,
2013-01-24 21:37:00,17.2,-0.5,30.31,NW,315,4.6,4.7,45,0.00,OVC,,0.00,WeatherDisplay:10.37,2013-01-25 02:37:00,
2013-01-24 21:42:00,17.2,-0.5,30.31,NNW,338,4.9,4.9,45,0.00,OVC,,0.00,WeatherDisplay:10.37,2013-01-25 02:42:00,
2013-01-24 21:47:00,17.2,0.0,30.31,West,270,3.5,4.3,46,0.00,OVC,,0.00,WeatherDisplay:10.37,2013-01-25 02:47:00,
2013-01-24 21:52:00,17.2,0.0,30.32,WNW,292,4.6,4.6,46,0.00,OVC,,0.00,WeatherDisplay:10.37,2013-01-25 02:52:00,
2013-01-24 21:57:00,17.2,0.0,30.32,WSW,248,6.9,6.9,46,0.00,OVC,,0.00,WeatherDisplay:10.37,2013-01-25 02:57:00,
2013-01-24 22:02:00,17.2,-0.5,30.32,WNW,292,4.6,4.6,45,0.00,OVC,,0.00,WeatherDisplay:10.37,2013-01-25 03:02:00,
2013-01-24 22:07:00,16.9,-0.8,30.32,West,270,11.5,11.5,45,0.00,OVC,,0.00,WeatherDisplay:10.37,2013-01-25 03:07:00,
2013-01-24 22:12:00,16.7,-0.5,30.31,NW,315,3.5,4.0,46,0.00,OVC,,0.00,WeatherDisplay:10.37,2013-01-25 03:12:00,
2013-01-24 22:17:00,16.7,-1.0,30.31,NNW,338,6.9,6.9,45,0.00,OVC,,0.00,WeatherDisplay:10.37,2013-01-25 03:17:00,
2013-01-24 22:22:00,16.7,-1.0,30.31,NW,315,6.9,6.9,45,0.00,OVC,,0.00,WeatherDisplay:10.37,2013-01-25 03:22:00,
2013-01-24 22:27:00,16.5,-1.2,30.31,NNW,338,5.8,5.8,45,0.00,OVC,,0.00,WeatherDisplay:10.37,2013-01-25 03:27:00,
2013-01-24 22:32:00,16.5,-1.2,30.32,NNW,338,6.9,6.9,45,0.00,OVC,,0.00,WeatherDisplay:10.37,2013-01-25 03:32:00,
2013-01-24 22:37:00,16.5,-1.2,30.32,NNE,22,4.6,4.6,45,0.00,OVC,,0.00,WeatherDisplay:10.37,2013-01-25 03:37:00,
2013-01-24 22:42:00,16.5,-1.2,30.32,NW,315,6.9,6.9,45,0.00,OVC,,0.00,WeatherDisplay:10.37,2013-01-25 03:42:00,
2013-01-24 22:47:00,16.5,-1.2,30.32,West,270,6.9,6.9,45,0.00,OVC,,0.00,WeatherDisplay:10.37,2013-01-25 03:47:00,
2013-01-24 22:52:00,16.5,-1.2,30.33,NW,315,5.8,5.8,45,0.00,OVC,,0.00,WeatherDisplay:10.37,2013-01-25 03:52:00,
2013-01-24 22:57:00,16.5,-1.6,30.33,NW,315,9.2,9.2,44,0.00,OVC,,0.00,WeatherDisplay:10.37,2013-01-25 03:57:00,
2013-01-24 23:02:00,16.5,-1.2,30.33,NW,315,3.9,4.4,45,0.00,OVC,,0.00,WeatherDisplay:10.37,2013-01-25 04:02:00,
2013-01-24 23:07:00,16.2,-1.5,30.33,NNW,338,9.2,9.2,45,0.00,OVC,,0.00,WeatherDisplay:10.37,2013-01-25 04:07:00,
2013-01-24 23:12:00,16.2,-1.5,30.32,NW,315,6.9,6.9,45,0.00,OVC,,0.00,WeatherDisplay:10.37,2013-01-25 04:12:00,
2013-01-24 23:17:00,16.2,-1.5,30.32,NNW,338,6.9,6.9,45,0.00,OVC,,0.00,WeatherDisplay:10.37,2013-01-25 04:17:00,
2013-01-24 23:22:00,16.2,-1.5,30.32,NW,315,3.9,4.5,45,0.00,OVC,,0.00,WeatherDisplay:10.37,2013-01-25 04:22:00,
2013-01-24 23:27:00,16.0,-1.7,30.32,NW,315,3.5,3.6,45,0.00,OVC,,0.00,WeatherDisplay:10.37,2013-01-25 04:27:00,
2013-01-24 23:32:00,16.0,-1.7,30.33,NW,315,2.3,2.6,45,0.00,OVC,,0.00,WeatherDisplay:10.37,2013-01-25 04:32:00,
2013-01-24 23:37:00,15.8,-1.8,30.33,NW,315,2.3,2.3,45,0.00,OVC,,0.00,WeatherDisplay:10.37,2013-01-25 04:37:00,
2013-01-24 23:42:00,15.8,-1.8,30.33,West,270,4.6,4.6,45,0.00,OVC,,0.00,WeatherDisplay:10.37,2013-01-25 04:42:00,
2013-01-24 23:47:00,15.8,-1.8,30.33,NNW,338,6.9,6.9,45,0.00,OVC,,0.00,WeatherDisplay:10.37,2013-01-25 04:47:00,
2013-01-24 23:52:00,15.8,-1.8,30.33,NW,315,6.9,6.9,45,0.00,OVC,,0.00,WeatherDisplay:10.37,2013-01-25 04:52:00,
2013-01-24 23:57:00,15.8,-2.3,30.33,NW,315,6.9,6.9,44,0.00,OVC,,0.00,WeatherDisplay:10.37,2013-01-25 04:57:00,